Theta_e
340 339 340 340 339 339 336 336 336 335 335 334 334 333 334 334 335 335 335 335 335 332 329 329 328 329 327
338 333 335 336 337 336 335 333 331 332 332 332 330 333 333 334 335 335 334 333 332 328 327 326 326 326 323
338 330 330 331 331 330 329 327 325 327 327 325 326 331 332 333 335 333 330 330 330 327 325 324 323 321 320
336 332 332 332 330 329 327 325 325 324 323 326 322 326 328 330 334 332 331 328 322 320 317 320 318 319 316
331 331 330 329 325 325 325 324 324 325 325 325 323 323 323 321 331 329 322 318 316 315 315 316 315 317 315
331 330 327 325 323 323 325 325 323 324 324 325 329 330 329 329 325 323 317 314 313 315 316 314 313 314 311
327 326 324 322 323 324 325 325 325 324 325 327 328 327 325 322 320 317 311 311 312 313 311 308 307 309 309
323 322 321 321 322 324 324 324 325 326 325 328 326 323 319 317 316 309 307 309 311 308 305 304 302 302 307
321 320 319 320 322 324 326 325 325 326 328 326 322 316 314 314 314 307 305 309 309 304 300 299 299 299 301
319 318 319 322 325 323 326 326 326 325 323 316 314 310 310 311 306 305 303 306 306 299 296 297 298 299 300
320 319 320 323 324 325 326 326 324 320 316 311 308 309 309 306 303 302 303 305 297 295 294 295 296 297 297
320 319 322 320 316 317 314 317 315 313 310 306 305 304 305 302 300 301 300 300 297 294 293 293 295 297 298
319 318 315 311 311 307 304 305 307 307 306 303 301 300 300 299 298 300 300 297 296 294 293 293 293 295 293
320 318 314 310 307 302 300 300 301 302 301 300 300 299 298 295 295 297 297 294 294 295 297 296 291 289 289
320 317 310 304 301 298 297 297 298 299 299 298 296 295 294 294 292 293 296 295 293 293 293 293 291 290 288
319 313 306 306 301 299 297 296 295 295 294 294 294 293 292 292 292 292 293 293 296 291 292 291 289 288 286
Wind_Speed
12 13 14 14 13 13 13 12 13 10 10 10 9 9 9 8 7 7 6 6 7 6 5 6 9 10 7
9 14 13 12 11 11 11 12 11 10 10 9 9 7 7 7 6 6 6 5 5 5 3 5 7 9 13
10 9 12 12 12 12 10 10 9 5 6 7 7 8 7 5 6 6 3 2 4 2 4 7 6 8 10
9 9 9 9 6 6 6 6 5 6 5 6 7 7 6 6 7 6 3 4 6 3 2 6 4 10 7
9 7 4 4 4 4 7 6 5 5 5 4 4 3 4 5 3 3 5 4 6 5 5 5 7 8 7
8 7 8 6 4 4 6 7 4 4 5 4 5 5 4 3 3 5 4 5 6 7 7 8 8 8 7
8 5 6 5 5 5 5 6 5 4 5 4 5 4 4 4 4 4 5 5 6 6 8 7 7 7 11
6 5 5 5 5 5 5 5 6 5 5 5 5 5 4 4 3 5 4 5 5 6 7 8 9 9 9
8 7 5 5 5 5 6 7 6 4 5 6 6 5 4 1 5 5 4 4 6 7 9 9 7 8 7
7 6 5 5 5 3 4 4 5 7 8 6 5 5 3 2 4 4 3 4 5 7 7 7 5 6 6
7 5 6 6 5 4 4 5 7 7 7 6 4 5 4 3 4 4 5 4 7 6 7 5 4 3 5
7 5 5 6 5 5 4 4 7 5 7 6 5 5 5 5 5 5 6 6 6 6 7 5 2 3 4
10 8 6 6 6 5 4 7 6 6 6 6 5 6 5 5 5 7 5 8 5 4 4 2 2 4 5
11 8 4 7 5 5 4 6 6 7 7 7 7 7 7 6 7 5 4 3 3 1 1 2 3 1 4
14 10 8 8 7 4 4 5 6 9 9 9 9 8 7 6 5 4 4 5 4 3 5 1 3 2 4
17 13 17 9 8 4 5 7 7 10 10 9 10 8 7 6 7 6 5 4 4 5 3 4 4 3 3
Wind_Direction
155 153 149 148 146 146 148 161 121 131 129 121 117 119 111 101 88 78 76 82 78 62 31 343 337 337 336
153 146 141 141 136 138 125 114 121 123 122 127 125 110 109 104 98 92 85 91 92 68 36 358 334 326 48
139 134 127 128 126 120 120 131 141 151 162 154 123 121 119 121 119 112 113 101 139 145 51 8 16 60 54
134 137 135 139 143 146 145 164 189 159 141 152 130 142 157 156 156 158 113 25 33 142 47 42 66 78 58
144 145 152 158 158 155 152 182 215 124 134 142 144 169 179 187 185 168 72 53 55 44 44 34 64 81 65
151 169 165 164 161 147 156 194 152 137 165 186 176 178 164 143 108 89 89 69 61 63 63 55 57 82 76
158 182 155 163 146 159 153 183 153 175 181 178 103 99 100 79 58 79 89 87 74 67 65 67 62 84 96
156 187 154 140 158 164 147 180 183 182 179 118 117 98 91 93 96 83 95 99 98 83 69 58 50 50 87
168 170 149 158 171 173 162 170 202 208 106 109 111 96 79 84 112 102 89 102 95 92 80 67 57 47 59
173 158 154 162 146 159 136 147 129 89 96 91 91 102 131 115 91 92 100 93 97 83 78 68 70 73 72
168 166 162 137 114 113 122 111 109 105 105 109 118 111 130 99 82 99 54 76 97 90 90 86 88 102 94
162 154 105 102 97 78 67 94 101 98 101 107 107 111 107 91 76 73 87 62 92 102 104 102 121 114 101
169 141 130 127 113 85 66 66 88 102 102 105 102 91 79 86 96 101 97 91 67 104 112 86 94 90 96
173 154 131 135 106 111 92 74 73 82 82 90 91 87 86 95 82 79 107 115 95 179 137 155 155 96 56
169 139 113 95 98 97 111 96 78 82 78 87 90 97 93 95 98 90 102 122 137 82 70 132 168 141 135
159 150 151 157 152 139 127 105 87 77 78 80 84 86 91 96 92 77 51 57 124 118 85 57 71 103 150